Regional Weather Roundup
Issued by NWS

Home | Current Version | Previous Version | Text Only | Print | Product List | Glossary Off
Versions: 1 2 3 4 5 6 7 8 9 10 11 12 13 14 15 16 17 18 19 20 21 22 23 24 25 26 27 28 29 30 31 32 33 34 35 36 37 38 39 40 41 42 43 44 45 46 47 48 49 50

484
ASUS43 KMPX 061710
RWRMN
WEATHER ROUNDUP FOR MINNESOTA
NATIONAL WEATHER SERVICE TWIN CITIES/CHANHASSEN MN
1100 AM CST TUE DEC 06 2016


NOTE: "FAIR" INDICATES FEW OR NO CLOUDS BELOW 12,000 FEET WITH NO
SIGNIFICANT WEATHER AND/OR OBSTRUCTIONS TO VISIBILITY. N/A MEANS
CURRENT SKY AND/OR WEATHER CONDITIONS ARE NOT AVAILABLE.

MNZ060>063-068>070-061800-
   Twin Cities Metro

CITY           SKY/WX    TMP DP  RH WIND       PRES   REMARKS
TWIN CITIES    CLOUDY    21   9  59 W18G36    29.73F WCI   6
ST PAUL        FLURRIES  22  13  68 W21G29    29.75S WCI   6
CRYSTAL        CLOUDY    21   9  59 SW17G24   29.71S WCI   7
BLAINE         FLURRIES  23  14  68 SW18G26   29.70S WCI   9
LAKEVILLE      FLURRIES  19  12  73 SW15G24   29.74F WCI   5
EDEN PRAIRIE   CLOUDY    21  10  62 SW24G32   29.73S WCI   4
SOUTH ST PAUL  CLOUDY    23  13  66 SW13G23   29.74F WCI  11
LAKE ELMO      FLURRIES  23  16  74 SW18G29   29.73F WCI   9
$$
MNZ001>005-007-008-013>017-022>024-027-028-061800-
   Northwest Minnesota

CITY           SKY/WX    TMP DP  RH WIND       PRES   REMARKS
BEMIDJI        CLOUDY    20  15  81 S18       29.34F HAZE    WCI   5
HALLOCK        LGT SNOW  25  21  86 NE8       29.37R VSB 3/4 WCI  16
ROSEAU         CLOUDY    23  19  86 SE10      29.37S WCI  12
WARROAD        CLOUDY    23  19  86 SE12      29.38S WCI  12
THIEF RVR FALL LGT SNOW  23  20  88 E16       29.27S FOG     WCI  10
CROOKSTON      LGT SNOW  27  25  93 NW31G37   29.25S VSB 3/4 WCI  10
FOSSTON        SNOW      23  21  93 S14G20    29.27F VSB 1/2 WCI  11
DETROIT LAKES  LGT SNOW  23  21  93 W18G29    29.39S VSB 1   WCI   9
MOORHEAD       LGT RAIN  21  18  86 W32G40    29.44S VSB 1/2 WCI   2
PARK RAPIDS    LGT SNOW  22  16  78 S16       29.38F WCI   8
$$
MNZ006-009>011-018-025>026-061800-
   North Central Minnesota

CITY           SKY/WX    TMP DP  RH WIND       PRES   REMARKS
BAUDETTE       CLOUDY    22  16  78 S13       29.39F WCI  10
FLAG ISLAND    CLOUDY    25  21  86 SE18      29.38S WCI  11
INTL FALLS     CLOUDY    24  18  77 VRB7      29.43F WCI  16
WASKISH        FLURRIES  21  18  86 SE15      29.37F WCI   8
BIG FORK       LGT SNOW  21  16  79 S12G24    29.43F WCI   9
LONGVILLE      LGT SNOW  19  14  79 S13G24    29.44F WCI   7
GRAND RAPIDS   LGT SNOW  19  13  77 S17G26    29.48F WCI   4
CRANE LAKE     CLOUDY    25  19  80 S9G21     29.48F WCI  15
COOK           FLURRIES  21  18  86 S7        29.47F WCI  13
$$
MNZ012-019>021-037-061800-
   Northeast Minnesota

CITY           SKY/WX    TMP DP  RH WIND       PRES   REMARKS
DULUTH         FLURRIES  23  16  74 SW24G32   29.52F WCI   7
ELY            CLOUDY    27  21  80 SW14G21   29.46F WCI  15
HIBBING        LGT SNOW  20  15  81 S13G21    29.47F WCI   7
EVELETH        MIX PCPN  23  16  74 SW14G22   29.49F WCI  10
DULUTH HARBOR  PTSUNNY   28  19  69 SW23G31   29.58F WCI  14
TWO HARBORS    PTSUNNY   28  21  74 SW16G22   29.53S WCI  17
SILVER BAY     CLOUDY    27  21  80 SW9G20    29.52S WCI  17
GRAND MARAIS     N/A     35  34  96 SW21      29.55F WCI  24
G MARAIS ARPRT LGT SNOW  28  27  93 S12G17    29.49F VSB 3/4 WCI  18
$$
MNZ029>031-032-039>041-046>048-054>057-064-061800-
   West Central Minnesota

CITY           SKY/WX    TMP DP  RH WIND       PRES   REMARKS
FERGUS FALLS   LGT SNOW  19  18  93 W25G37    29.57R VSB 1   WCI   2
WHEATON        LGT SNOW  21  18  86 W20G35    29.64R WCI   6
MORRIS         LGT SNOW  21  16  79 W26G37    29.61S WCI   4
ALEXANDRIA     LGT SNOW  21  17  84 W24G37    29.55R VSB 3/4 WCI   4
ELBOW LAKE     LGT SNOW  20  18  93 SW31G40   29.57R VSB 3/4 WCI   0
WADENA         LGT SNOW  21  19  93 SW17G26   29.45R WCI   7
GLENWOOD       LGT SNOW  21  18  86 W24G37    29.59R WCI   4
APPLETON       CLOUDY    23  12  63 W30G40    29.67R WCI   5
BENSON         FLURRIES  21  14  73 W28G36    29.65R WCI   3
ORTONVILLE     CLOUDY    19  10  68 W25G38    29.67R WCI   2
MADISON        PTSUNNY   21  12  68 W28G40    29.72S WCI   3
WILLMAR        FLURRIES  21  16  79 W29G35    29.68S WCI   3
$$
MNZ033>034-036-042>043-049>051-058-059-061800-
   Central Minnesota

CITY           SKY/WX    TMP DP  RH WIND       PRES   REMARKS
ST CLOUD       FLURRIES  20  13  74 SW23G30   29.64F WCI   3
PAYNESVILLE    LGT SNOW  20  15  82 SW23G29   29.65S WCI   3
AITKIN         FLURRIES  21  12  68 S14G23    29.50F WCI   8
PINE RIVER     CLOUDY    19  16  86 S13G24    29.50F FOG     WCI   7
BRAINERD       LGT SNOW  20  14  77 S21G31    29.52F WCI   4
STAPLES        CLOUDY    21  18  86 SW17      29.48F FOG     WCI   7
LONG PRAIRIE   LGT SNOW  21  18  86 S16G29    29.55F WCI   7
LITTLE FALLS   LGT SNOW  21  16  79 SW17G25   29.58F WCI   7
LITCHFIELD     LGT SNOW  21  16  79 SW13G24   29.69S WCI   9
BUFFALO        FLURRIES  21  12  68 SW15G31   29.71F WCI   8
MAPLE LAKE     LGT SNOW  22  15  75 SW17G23   29.69F WCI   8
HUTCHINSON     LGT SNOW  21  16  79 SW21G31   29.72S WCI   6
$$
MNZ037-044-045-052-053-061800-
   East Central Minnesota

CITY           SKY/WX    TMP DP  RH WIND       PRES   REMARKS
PRINCETON      FLURRIES  21  14  73 SW15G23   29.64F WCI   8
MORA           PTSUNNY   21  12  68 SW16G28   29.64F WCI   7
CAMBRIDGE      FLURRIES  21  12  68 SW15G26   29.64F WCI   8
RUSH CITY      CLOUDY    21  14  73 SW15G23   29.66S WCI   8
MOOSE LAKE     CLOUDY    21  12  68 SW15G25   29.56S WCI   8
HINCKLEY       FLURRIES  23  16  74 SW18G26   29.62F WCI   9
CLOQUET        LGT SNOW  21  14  73 SW16G28   29.54S WCI   7
MCGREGOR       CLOUDY    21  18  86 S21       29.54F WCI   6
$$
MNZ071>073-080-081-089-090-097-098-061800-
   Southwest Minnesota

CITY           SKY/WX    TMP DP  RH WIND       PRES   REMARKS
MONTEVIDEO     CLOUDY    21  10  63 NW20G39   29.73R WCI   6
GRANITE FALLS  CLOUDY    23  15  71 SW32G40   29.76R WCI   5
CANBY          CLOUDY    21  12  69 NW29G41   29.76R WCI   3
MARSHALL       PTSUNNY   20  11  68 W36G46    29.75R WCI   0
REDWOOD FALLS  LGT SNOW  21  11  65 W31G39    29.75S WCI   2
OLIVIA         FLURRIES  21  14  73 W21G36    29.72S WCI   6
PIPESTONE      CLOUDY    18  10  73 NW24G41   29.81R WCI   0
WINDOM         MOSUNNY   19  10  68 W31G40    29.78F WCI   0
WORTHINGTON    FLURRIES  17  11  77 W32G41    29.81S WCI  -3
JACKSON        CLOUDY    19  10  68 W31G39    29.80F WCI   0
TRACY          CLOUDY    21  12  69 W22G35    29.77R WCI   4
SLAYTON        CLOUDY    18  10  73 W30G39    29.79S WCI  -2
$$
MNZ065>067-074>077-082>085-091>093-061800-
   South Central Minnesota

CITY           SKY/WX    TMP DP  RH WIND       PRES   REMARKS
MANKATO        FLURRIES  21  12  68 W24G35    29.77F WCI   4
NEW ULM        CLOUDY    19  10  68 W25G33    29.78S WCI   2
ST JAMES       PTSUNNY   21  12  68 W25       29.80F WCI   4
FAIRMONT       FLURRIES  21  12  68 W25G38    29.82F WCI   4
GLENCOE        FLURRIES  22  15  76 SW20G29   29.74S WCI   7
FARIBAULT      CLOUDY    21  12  68 SW23G29   29.78F WCI   5
OWATONNA       CLOUDY    21  14  73 SW22G32   29.77F WCI   5
WASECA         FLURRIES  23  16  74 SW24G32   29.80F WCI   7
ALBERT LEA     FLURRIES  25  18  74 W14G26    29.80F WCI  13
$$
MNZ078>079-086>088-094>096-061800-
   Southeast Minnesota

CITY           SKY/WX    TMP DP  RH WIND       PRES   REMARKS
ROCHESTER      MIX PCPN  20  15  81 W29       29.76S WCI   1
RED WING       CLOUDY    23  16  74 W15G23    29.75S WCI  10
STANTON        FLURRIES  23  14  68 W17G26    29.75F WCI  10
DODGE CENTER   CLOUDY    21  16  79 W25G32    29.76F WCI   4
WINONA         CLOUDY    28  21  74 W13G22    29.79S WCI  18
AUSTIN         PTSUNNY   21  16  79 W18G25    29.80S WCI   6
PRESTON        PTSUNNY   21  15  76 W21       29.79S HAZE    WCI   5
$$
ABBREVIATIONS USED IN REMARKS
   TC - TEMPERATURES IN CELSIUS
  WCI - WIND CHILL INDEX
   HX - HEAT INDEX
  VSB - VISIBILITY
$$




USA.gov is the U.S. government's official web portal to all federal, state and local government web resources and services.